SCP
0 0 0 0 0 0 0 0 0 0 0 0 0 0 0 0 0 0 0 0 0 0 0 0 0 0 0 0 0 0 0 0 0 0 0 0 0 0 0 0 0 0 0
0 0 0 0 0 0 0 0 0 0 0 0 0 0 0 0 0 0 0 0 0 0 0 0 0 0 1 1 1 1 1 0 0 0 0 0 0 0 0 0 0 0 0
0 0 0 0 0 0 0 0 0 0 0 0 0 0 0 0 0 0 0 0 0 0 0 0 0 0 0 1 1 1 1 0 1 1 0 0 0 0 0 0 0 0 0
0 0 0 0 0 0 0 0 0 0 0 0 0 0 0 0 0 0 0 0 0 0 0 0 0 0 0 0 0 1 1 0 0 1 1 0 0 0 0 0 0 0 0
0 0 0 0 0 0 0 0 0 0 0 0 0 0 0 0 0 0 0 0 0 0 0 0 0 0 0 0 0 1 1 1 1 1 1 1 1 1 1 1 0 0 0
0 0 0 0 0 0 0 0 0 0 0 0 0 0 0 0 0 0 0 0 0 0 0 0 0 0 0 0 0 0 1 1 1 1 1 1 1 1 1 1 1 0 0
0 0 0 0 0 0 0 0 0 0 0 0 0 0 0 0 0 0 0 0 0 0 0 0 0 0 0 0 0 0 0 1 1 1 1 1 1 1 1 1 1 1 0
0 0 0 0 0 0 0 0 0 0 0 0 0 0 0 0 0 0 0 0 0 0 0 0 0 0 0 0 0 0 0 0 1 1 1 1 1 1 1 1 1 1 1
0 0 0 0 0 0 0 0 0 0 1 1 1 0 0 0 0 0 0 0 0 0 0 0 0 0 0 0 0 0 0 0 0 0 0 1 1 1 1 1 1 1 1
0 0 0 0 0 0 0 0 0 0 0 0 1 0 0 0 0 0 0 0 0 0 0 0 0 0 0 0 0 0 0 0 0 0 0 0 1 1 1 1 1 1 1
0 0 0 0 0 0 0 0 0 0 0 0 0 0 0 0 0 0 0 0 0 0 0 0 0 0 0 0 0 0 0 0 0 0 0 0 0 1 1 1 1 1 1
0 0 0 0 0 0 0 0 0 0 0 0 0 0 0 0 0 0 0 0 0 0 0 0 0 0 0 0 0 0 0 0 0 0 0 0 0 0 1 1 1 1 1
0 0 0 0 0 0 0 0 0 0 0 0 0 0 0 0 0 0 0 0 0 0 0 0 0 0 0 0 0 0 0 0 0 0 0 0 0 0 0 1 1 1 1
0 0 0 0 0 0 0 0 0 0 0 0 0 0 0 0 0 0 0 0 0 0 0 0 0 0 0 0 0 0 0 0 0 0 0 0 0 0 0 0 0 1 1
0 0 0 0 0 0 0 0 0 0 0 0 0 0 0 0 0 0 0 0 0 0 0 0 0 0 0 0 0 0 0 0 0 0 0 0 0 0 0 0 0 0 0
0 0 0 0 0 0 0 0 0 0 0 0 0 0 0 0 0 0 0 0 0 0 0 0 0 0 0 0 0 0 0 0 0 0 0 0 0 0 0 0 0 0 0
0 0 0 0 0 0 0 0 0 0 0 0 0 0 0 0 0 0 0 0 0 0 0 0 0 0 0 0 0 0 0 0 0 0 0 0 0 0 0 0 0 0 0
0 0 0 0 0 0 0 0 0 0 0 0 0 0 0 0 0 0 0 0 0 0 0 0 0 0 0 0 0 0 0 0 0 0 0 0 0 0 0 0 0 0 0
0 0 0 0 0 0 0 0 0 0 0 0 0 0 0 0 0 0 0 0 0 0 0 0 0 0 0 0 0 0 0 0 0 0 0 0 0 0 0 0 0 0 0
0 0 0 0 0 0 0 0 0 0 0 0 0 0 0 0 0 0 0 0 0 0 0 0 0 0 0 0 0 0 0 0 0 0 0 0 0 0 0 0 0 0 0
0 0 0 0 0 0 0 0 0 0 0 0 0 0 0 0 0 0 0 0 0 0 0 0 0 0 0 0 0 0 0 0 0 0 0 0 0 0 0 0 0 0 0
0 0 0 0 0 0 0 0 0 0 0 0 0 0 0 0 0 0 0 0 0 0 0 0 0 0 0 0 0 0 0 0 0 0 0 0 0 0 0 0 0 0 0
0 0 0 0 0 0 0 0 0 0 0 0 0 0 0 0 0 0 0 0 0 0 0 0 0 0 0 0 0 0 0 0 0 0 0 0 0 0 0 0 0 0 0
0 0 0 0 0 0 0 0 0 0 0 0 0 0 0 0 0 0 0 0 0 0 0 0 0 0 0 0 0 0 0 0 0 0 0 0 0 0 0 0 0 0 0
0 0 0 0 0 0 0 0 0 0 0 0 0 0 0 0 0 0 0 0 0 0 0 0 0 0 0 0 0 0 0 0 0 0 0 0 0 0 0 0 0 0 0
0 0 0 0 0 0 0 0 0 0 0 0 0 0 0 0 0 0 0 0 0 0 0 0 0 0 0 0 0 0 0 0 0 0 0 0 0 0 0 0 0 0 0
Wind_Speed
2 2 2 2 2 2 2 2 2 3 3 3 3 3 3 2 2 2 2 5 6 7 8 9 9 9 9 8 8 8 8 7 7 7 7 7 8 8 9 9 9 10 10
2 2 2 2 2 2 2 2 2 2 2 2 3 3 3 2 2 2 2 3 6 8 8 9 9 10 10 10 9 8 8 9 8 8 8 8 8 9 9 10 10 11 11
2 2 2 2 2 2 2 2 2 2 2 3 3 3 3 3 3 3 3 3 3 6 8 9 10 10 10 11 10 10 10 9 9 9 9 10 10 10 10 10 11 12 12
3 2 2 2 3 2 2 2 2 2 2 3 3 3 2 2 3 2 2 3 3 3 6 9 11 12 12 12 11 11 11 10 10 10 10 11 11 11 11 12 12 13 13
3 2 2 2 3 2 3 3 3 2 3 3 3 2 2 2 2 2 3 4 4 4 4 7 10 11 12 13 13 13 12 12 11 11 11 12 12 13 13 13 14 14 15
2 2 2 2 2 2 3 3 3 2 2 3 3 3 2 1 2 2 3 3 4 5 5 5 5 7 11 13 14 14 14 13 13 13 13 13 14 14 14 14 15 15 15
2 2 2 2 2 2 2 3 2 2 3 3 2 2 2 2 2 2 2 3 4 5 5 5 4 4 5 11 14 15 15 15 15 15 15 15 15 16 16 16 17 17 17
3 3 2 2 2 2 3 3 3 2 2 3 1 2 3 3 3 3 2 3 4 4 5 5 5 5 4 4 9 14 15 16 16 17 17 17 18 17 17 18 18 18 18
3 3 3 2 2 2 2 2 2 2 1 2 2 1 1 3 4 2 2 3 4 3 3 4 4 5 5 4 5 10 15 16 16 17 18 18 19 19 19 19 19 19 19
3 3 3 3 3 2 2 2 2 2 1 2 2 2 1 1 2 3 2 2 4 4 4 4 4 4 4 4 6 11 13 15 16 17 17 18 19 20 20 20 20 20 20
2 3 3 2 3 2 3 3 3 3 2 1 1 2 2 2 1 2 5 4 3 3 3 3 3 3 3 3 4 8 13 14 15 16 17 18 19 19 20 20 21 21 21
2 3 3 2 2 2 2 2 2 2 2 2 1 2 1 2 2 2 4 6 5 4 4 3 3 3 3 3 6 11 13 14 15 16 16 17 18 19 20 20 20 20 21
1 2 2 2 2 2 2 2 2 2 2 2 1 1 1 2 2 2 4 5 6 5 3 2 2 3 4 3 4 11 11 14 15 16 17 17 18 19 19 20 20 21 21
1 1 2 2 1 2 2 2 2 2 2 2 2 2 2 2 2 2 3 4 5 4 3 3 2 2 3 4 7 11 8 13 15 16 17 17 18 18 19 19 20 21 21
1 1 1 2 2 2 2 2 1 2 2 1 2 2 2 2 2 2 2 3 4 6 6 4 3 3 4 4 8 6 6 12 16 17 17 18 18 18 19 20 20 21 21
1 1 1 2 2 2 2 1 1 2 2 2 2 2 2 2 2 2 2 2 3 5 7 5 4 4 5 6 10 7 7 14 15 17 17 18 18 18 19 20 20 21 22
1 1 1 2 2 2 2 1 1 2 2 2 2 2 3 3 2 2 2 2 3 4 7 7 5 4 5 6 7 6 7 7 7 14 17 18 18 19 19 20 20 20 21
1 1 1 1 2 2 2 2 2 2 2 3 3 3 4 3 3 3 3 3 3 4 5 9 7 5 6 6 7 7 7 7 7 13 17 17 18 19 19 20 20 20 21
1 1 1 1 2 2 2 2 2 2 2 2 3 3 4 4 4 3 4 4 4 4 5 6 7 5 5 5 7 7 7 6 7 10 14 15 16 18 19 20 20 20 21
1 1 1 2 2 2 2 2 2 2 2 2 3 3 4 4 4 5 4 5 5 5 5 6 6 6 6 6 5 6 7 6 7 8 10 12 14 17 18 19 19 20 20
1 1 2 2 2 2 2 2 2 2 2 3 3 4 4 5 6 5 5 5 5 5 5 6 6 6 6 6 6 6 8 8 7 5 6 7 8 8 9 13 16 18 20
1 1 2 2 3 3 4 4 3 3 3 4 4 4 5 5 6 8 9 9 8 7 7 6 7 8 9 8 7 7 8 9 8 4 6 9 7 8 8 7 15 20 20
1 2 2 2 3 4 5 5 5 4 4 4 4 5 5 5 5 5 7 9 8 9 9 7 8 9 9 8 8 9 8 9 9 7 7 9 7 8 8 10 19 20 20
2 2 3 3 3 4 6 6 6 4 4 4 5 5 5 6 5 6 6 7 7 6 7 6 6 7 7 7 7 8 9 9 8 6 6 8 8 8 9 8 16 18 19
2 3 3 3 3 4 6 6 6 3 4 5 5 5 5 5 8 9 7 7 7 7 7 8 9 10 11 12 9 5 5 6 8 7 4 5 7 9 9 8 9 16 19
3 3 3 3 4 4 6 7 6 3 4 4 4 4 5 6 8 9 6 6 7 7 6 6 7 8 8 8 9 5 5 5 6 7 4 5 6 7 8 6 6 8 10
Wind_Direction
36 23 14 14 8 2 1 350 343 348 345 340 346 345 336 336 340 349 3 10 10 5 357 350 348 347 348 347 345 340 336 337 335 329 324 321 318 314 310 304 299 298 298
35 28 21 12 5 359 346 337 340 346 338 340 345 345 337 347 10 13 9 11 16 13 3 358 355 351 349 348 346 346 347 347 345 342 337 330 321 315 312 310 304 296 293
29 24 28 15 354 349 343 342 353 359 357 352 346 347 359 9 19 23 17 15 7 11 5 358 354 350 348 346 345 346 345 343 342 342 338 334 329 320 315 310 307 303 297
34 34 30 8 351 358 360 360 359 355 353 349 342 342 354 10 18 18 22 18 10 4 0 0 355 350 346 345 345 344 342 340 340 341 338 333 327 327 322 314 309 305 303
36 44 33 8 2 13 11 1 2 359 349 345 335 337 353 3 9 17 19 16 12 11 5 1 0 357 352 348 345 341 338 337 337 337 335 333 330 324 322 320 313 308 303
34 46 40 18 15 22 14 3 351 357 350 336 329 335 335 341 15 17 19 20 15 14 10 4 360 356 357 354 349 342 337 335 336 333 332 331 328 324 322 319 315 312 308
34 46 36 25 22 26 11 360 346 348 1 354 349 332 333 339 28 16 21 22 13 11 12 6 7 6 356 354 352 350 346 344 343 339 335 331 326 321 320 319 317 314 311
26 33 34 31 19 21 17 13 9 358 360 11 3 338 329 331 7 357 9 20 10 6 7 2 2 8 0 352 349 350 348 344 342 340 337 332 327 323 319 316 315 312 311
30 29 29 30 24 31 19 11 12 15 349 353 23 30 330 297 315 318 357 12 7 358 354 351 359 359 354 353 344 346 346 342 340 337 335 332 328 323 320 316 313 312 310
29 30 31 30 26 27 24 15 19 9 22 0 349 6 2 284 297 304 314 348 351 348 344 341 343 343 346 344 341 342 341 340 338 336 333 330 329 326 321 317 315 312 310
23 24 28 33 28 24 20 18 17 20 25 23 5 334 327 331 332 286 297 316 326 325 326 320 319 325 333 334 330 334 337 335 333 334 333 330 328 326 323 319 317 315 313
13 15 18 25 25 21 16 11 20 26 21 26 23 21 359 330 315 300 290 305 306 304 306 303 314 322 329 333 331 333 333 332 332 332 331 329 328 325 323 322 321 320 318
354 359 11 9 6 6 11 13 26 28 22 18 6 352 346 316 309 297 288 298 298 298 288 291 312 322 330 332 324 330 329 331 330 329 327 326 325 324 322 321 321 320 318
304 345 359 359 356 3 7 13 18 10 15 7 356 344 334 321 322 308 295 301 304 296 289 292 304 323 330 325 324 330 324 326 325 323 322 322 321 321 320 319 319 317 316
339 6 2 357 353 359 4 14 12 351 354 338 325 326 316 310 313 308 305 295 288 295 296 295 310 327 329 324 326 323 318 318 320 319 318 319 319 319 319 319 318 317 316
343 355 7 360 354 355 359 357 344 335 338 325 323 324 316 310 310 306 298 295 284 280 286 292 299 310 316 319 321 318 312 318 317 315 315 316 316 317 317 317 317 316 315
346 356 353 351 348 342 335 328 320 323 328 324 323 320 312 312 310 309 305 301 295 286 283 292 297 307 308 311 312 308 305 304 307 314 316 315 316 315 315 315 315 315 314
349 340 346 349 339 335 326 311 312 324 316 316 316 317 311 312 311 308 303 297 293 289 284 293 299 304 301 302 303 305 308 308 304 309 313 315 316 315 314 314 314 314 314
343 344 345 328 319 317 313 306 303 315 312 306 308 309 306 307 305 301 295 291 290 294 288 287 295 300 298 302 304 302 301 300 304 310 312 315 315 316 314 313 314 314 312
326 319 307 295 294 297 296 299 310 309 304 305 305 298 294 288 287 289 292 292 294 295 293 291 294 300 301 301 302 306 308 306 305 309 309 311 311 313 314 314 315 314 311
308 300 300 298 297 291 283 294 299 294 293 299 301 298 295 293 293 293 294 295 296 293 295 296 295 299 301 307 306 305 304 306 297 299 306 306 308 307 310 311 312 310 311
302 306 293 295 299 296 300 301 299 296 293 291 294 297 297 292 299 302 300 300 298 292 292 292 294 295 299 301 302 301 304 307 301 305 309 304 303 301 305 304 308 310 312
278 282 286 290 290 289 298 302 306 300 291 284 284 288 293 297 297 298 300 302 300 294 287 283 286 291 296 298 298 295 293 295 293 302 308 298 301 298 301 305 309 307 311
269 272 279 279 283 288 297 302 309 305 293 287 286 283 282 288 292 297 300 299 296 295 292 287 283 288 293 295 291 292 295 295 291 291 299 292 300 299 301 299 303 306 312
268 273 282 278 281 288 289 294 302 297 289 291 290 289 284 282 290 298 299 297 298 299 297 294 294 295 298 302 305 305 302 302 301 299 301 290 297 304 298 291 298 307 311
259 271 278 276 273 278 282 288 294 287 285 290 294 293 288 291 299 303 301 296 295 299 305 305 301 301 301 301 304 298 291 289 295 294 297 302 299 313 303 288 294 303 307